Tracking 20241 objects as of 25-Jan-2020
HD Live streaming from Space Station
objects crossing your sky now

SURCAL 159

Track SURCAL 159 now!
10-day predictions
SURCAL 159 is classified as:


NORAD ID: 2872
Int'l Code: 1967-053F
Perigee: 897.9 km
Apogee: 912.3 km
Inclination: 70.0 °
Period: 102.9 minutes
Semi major axis: 7276 km
RCS: 0.3624 m2 (medium)
Launch date: May 31, 1967
Source: United States (US)
Launch site: AIR FORCE WESTERN TEST RANGE (AFWTR)
aabbcc
Your satellite tracking list
Your tracking list is empty




NASA's NSSDC Master Catalog

Two Line Element Set (TLE):
1  2872U 67053F   20025.40686214 -.00000041  00000-0  90815-5 0  9994
2  2872  69.9758 344.1162 0009880 275.5643  84.4337 13.98808721684052
Source of the keplerian elements: AFSPC